SCO29JK EGPE-EGAC

Flight info

Callsign SCO29JK
Flight time 0h 52m
Altitude 22000
Route GUSSI DCT NESDI N560 GOW DCT TRN P600 BLACA DCT MAGEE
Aircraft AT46/M-SDFGIRY/S

Departure

Time 2026-04-14 13:38
Airport Inverness Airport (EGPE)

Arrival

Time 2026-04-14 14:30
Airport George Best Belfast City Airport (EGAC)
Time Latitude Longitude Altitude Speed Heading
2026-04-14 13:06 57.53914 -4.06263 33 ft 0 kts 276°
2026-04-14 13:35 57.53914 -4.06264 33 ft 0 kts 272°
2026-04-14 13:35 57.53912 -4.06267 33 ft 1 kts 214°
2026-04-14 13:35 57.53901 -4.06238 33 ft 8 kts 118°
2026-04-14 13:35 57.53846 -4.06179 33 ft 12 kts 185°
2026-04-14 13:36 57.53776 -4.06157 33 ft 8 kts 125°
2026-04-14 13:36 57.53763 -4.06119 33 ft 0 kts 123°
2026-04-14 13:37 57.53754 -4.06095 34 ft 4 kts 126°
2026-04-14 13:37 57.53738 -4.06049 36 ft 5 kts 123°
2026-04-14 13:37 57.53710 -4.05970 36 ft 10 kts 122°
2026-04-14 13:37 57.53708 -4.05928 36 ft 1 kts 42°
2026-04-14 13:38 57.53797 -4.05740 37 ft 57 kts 50°
2026-04-14 13:38 57.54221 -4.04830 115 ft 116 kts 50°
2026-04-14 13:38 57.54757 -4.03710 790 ft 121 kts 46°
2026-04-14 13:38 57.55392 -4.02561 1462 ft 135 kts 46°
2026-04-14 13:39 57.56110 -4.01283 1968 ft 144 kts 58°
2026-04-14 13:39 57.56294 -3.99790 2442 ft 143 kts 105°
2026-04-14 13:39 57.55724 -3.98394 3113 ft 137 kts 151°
2026-04-14 13:39 57.54773 -3.98090 3631 ft 149 kts 188°
2026-04-14 13:40 57.53717 -3.98915 4055 ft 174 kts 206°
2026-04-14 13:40 57.52672 -4.00029 4743 ft 175 kts 207°
2026-04-14 13:40 57.51615 -4.01163 5401 ft 175 kts 207°
2026-04-14 13:40 57.50529 -4.02259 5942 ft 180 kts 203°
2026-04-14 13:41 57.49383 -4.03242 6496 ft 182 kts 203°
2026-04-14 13:41 57.48198 -4.04131 7056 ft 184 kts 199°
2026-04-14 13:41 57.46970 -4.04839 7603 ft 185 kts 195°
2026-04-14 13:41 57.45702 -4.05364 8136 ft 187 kts 192°
2026-04-14 13:42 57.44427 -4.05757 8637 ft 189 kts 191°
2026-04-14 13:42 57.43118 -4.06108 9159 ft 190 kts 191°
2026-04-14 13:42 57.41796 -4.06453 9656 ft 192 kts 191°
2026-04-14 13:42 57.40454 -4.06439 10102 ft 198 kts 169°
2026-04-14 13:43 57.39116 -4.05743 10462 ft 201 kts 171°
2026-04-14 13:43 57.37739 -4.05229 10857 ft 202 kts 175°
2026-04-14 13:43 57.36334 -4.04924 11255 ft 203 kts 179°
2026-04-14 13:43 57.34922 -4.04775 11658 ft 204 kts 184°
2026-04-14 13:44 57.33504 -4.04871 12059 ft 205 kts 188°
2026-04-14 13:44 57.32089 -4.05141 12439 ft 205 kts 192°
2026-04-14 13:44 57.30681 -4.05625 12841 ft 206 kts 196°
2026-04-14 13:44 57.29291 -4.06247 13238 ft 206 kts 199°
2026-04-14 13:45 57.27923 -4.07044 13625 ft 207 kts 203°
2026-04-14 13:45 57.26575 -4.08008 13995 ft 207 kts 206°
2026-04-14 13:45 57.25270 -4.09068 14343 ft 208 kts 208°
2026-04-14 13:45 57.23948 -4.10168 14655 ft 209 kts 208°
2026-04-14 13:46 57.22620 -4.11271 14974 ft 210 kts 208°
2026-04-14 13:46 57.21288 -4.12370 15332 ft 210 kts 208°
2026-04-14 13:46 57.19858 -4.13050 15619 ft 215 kts 192°
2026-04-14 13:46 57.18357 -4.13323 15900 ft 218 kts 190°
2026-04-14 13:47 57.16839 -4.13568 16192 ft 219 kts 190°
2026-04-14 13:47 57.15324 -4.13846 16456 ft 219 kts 192°
2026-04-14 13:47 57.13807 -4.14201 16714 ft 220 kts 193°
2026-04-14 13:47 57.12287 -4.14570 16983 ft 221 kts 193°
2026-04-14 13:48 57.10762 -4.14953 17254 ft 222 kts 193°
2026-04-14 13:48 57.09230 -4.15341 17533 ft 223 kts 193°
2026-04-14 13:48 57.07689 -4.15733 17806 ft 224 kts 193°
2026-04-14 13:48 57.06140 -4.16129 18082 ft 225 kts 193°
2026-04-14 13:49 57.04583 -4.16526 18288 ft 227 kts 194°
2026-04-14 13:49 57.03038 -4.16911 18464 ft 228 kts 193°
2026-04-14 13:49 57.01465 -4.17302 18649 ft 228 kts 193°
2026-04-14 13:49 56.99885 -4.17689 18828 ft 229 kts 193°
2026-04-14 13:50 56.98298 -4.18079 19018 ft 230 kts 194°
2026-04-14 13:50 56.96706 -4.18466 19202 ft 231 kts 193°
2026-04-14 13:50 56.95107 -4.18854 19393 ft 232 kts 194°
2026-04-14 13:50 56.93501 -4.19243 19600 ft 233 kts 194°
2026-04-14 13:51 56.91888 -4.19637 19800 ft 234 kts 194°
2026-04-14 13:51 56.90266 -4.20035 20003 ft 235 kts 194°
2026-04-14 13:51 56.88645 -4.20434 20191 ft 236 kts 194°
2026-04-14 13:51 56.87016 -4.20831 20369 ft 236 kts 194°
2026-04-14 13:52 56.85382 -4.21228 20534 ft 237 kts 194°
2026-04-14 13:52 56.83740 -4.21626 20689 ft 238 kts 194°
2026-04-14 13:52 56.82096 -4.22031 20858 ft 239 kts 195°
2026-04-14 13:52 56.80450 -4.22435 21010 ft 239 kts 195°
2026-04-14 13:53 56.78796 -4.22839 21143 ft 240 kts 195°
2026-04-14 13:53 56.77139 -4.23242 21285 ft 240 kts 195°
2026-04-14 13:53 56.75483 -4.23643 21413 ft 240 kts 195°
2026-04-14 13:53 56.73845 -4.24035 21540 ft 241 kts 195°
2026-04-14 13:54 56.72180 -4.24433 21681 ft 241 kts 195°
2026-04-14 13:54 56.70514 -4.24831 21840 ft 242 kts 195°
2026-04-14 13:54 56.68825 -4.25238 21904 ft 246 kts 195°
2026-04-14 13:54 56.67111 -4.25663 21940 ft 251 kts 195°
2026-04-14 13:55 56.65366 -4.26098 21948 ft 255 kts 195°
2026-04-14 13:55 56.63591 -4.26533 21960 ft 259 kts 194°
2026-04-14 13:55 56.61794 -4.26965 21960 ft 262 kts 194°
2026-04-14 13:55 56.59979 -4.27394 21949 ft 264 kts 194°
2026-04-14 13:56 56.58156 -4.27828 21950 ft 265 kts 194°
2026-04-14 13:56 56.56346 -4.28259 21967 ft 266 kts 194°
2026-04-14 13:56 56.54500 -4.28699 21956 ft 267 kts 194°
2026-04-14 13:56 56.52655 -4.29136 21948 ft 267 kts 194°
2026-04-14 13:57 56.50809 -4.29574 21962 ft 267 kts 194°
2026-04-14 13:57 56.48966 -4.30020 21962 ft 267 kts 194°
2026-04-14 13:57 56.47121 -4.30465 21962 ft 268 kts 194°
2026-04-14 13:57 56.45264 -4.30907 21962 ft 270 kts 194°
2026-04-14 13:58 56.43397 -4.31349 21968 ft 272 kts 194°
2026-04-14 13:58 56.41508 -4.31799 21970 ft 275 kts 194°
2026-04-14 13:58 56.39601 -4.32255 21966 ft 278 kts 194°
2026-04-14 13:58 56.37679 -4.32716 21953 ft 279 kts 194°
2026-04-14 13:59 56.35747 -4.33175 21954 ft 280 kts 194°
2026-04-14 13:59 56.33816 -4.33627 21958 ft 280 kts 193°
2026-04-14 13:59 56.31907 -4.34077 21957 ft 280 kts 193°
2026-04-14 13:59 56.29977 -4.34531 21949 ft 279 kts 193°
2026-04-14 14:00 56.28050 -4.34983 21961 ft 279 kts 194°
2026-04-14 14:00 56.26126 -4.35440 21965 ft 280 kts 194°
2026-04-14 14:00 56.24195 -4.35899 21966 ft 281 kts 194°
2026-04-14 14:00 56.22255 -4.36358 21951 ft 282 kts 194°
2026-04-14 14:01 56.20311 -4.36813 21949 ft 281 kts 193°
2026-04-14 14:01 56.18369 -4.37267 21956 ft 281 kts 193°
2026-04-14 14:01 56.16432 -4.37721 21956 ft 281 kts 193°
2026-04-14 14:01 56.14496 -4.38176 21963 ft 281 kts 194°
2026-04-14 14:02 56.12564 -4.38631 21960 ft 281 kts 193°
2026-04-14 14:02 56.10621 -4.39086 21960 ft 281 kts 193°
2026-04-14 14:02 56.08683 -4.39539 21958 ft 281 kts 193°
2026-04-14 14:02 56.06741 -4.39993 21958 ft 281 kts 193°
2026-04-14 14:03 56.04801 -4.40446 21966 ft 281 kts 193°
2026-04-14 14:03 56.02864 -4.40897 21961 ft 281 kts 193°
2026-04-14 14:03 56.00925 -4.41348 21961 ft 281 kts 193°
2026-04-14 14:03 55.99010 -4.41793 21966 ft 281 kts 193°
2026-04-14 14:04 55.97072 -4.42244 21965 ft 281 kts 193°
2026-04-14 14:04 55.95113 -4.42700 21966 ft 281 kts 193°
2026-04-14 14:04 55.93198 -4.43143 21966 ft 281 kts 193°
2026-04-14 14:04 55.91233 -4.43599 21970 ft 281 kts 193°
2026-04-14 14:05 55.89313 -4.44045 21958 ft 282 kts 193°
2026-04-14 14:05 55.87368 -4.44495 21964 ft 280 kts 194°
2026-04-14 14:05 55.85495 -4.45280 21962 ft 275 kts 204°
2026-04-14 14:05 55.83697 -4.46454 21960 ft 274 kts 207°
2026-04-14 14:06 55.81918 -4.47686 21965 ft 274 kts 206°
2026-04-14 14:06 55.80130 -4.48868 21968 ft 275 kts 205°
2026-04-14 14:06 55.78321 -4.49983 21970 ft 275 kts 204°
2026-04-14 14:06 55.76508 -4.51091 21965 ft 276 kts 205°
2026-04-14 14:07 55.74693 -4.52204 21962 ft 276 kts 204°
2026-04-14 14:07 55.72875 -4.53312 21958 ft 276 kts 205°
2026-04-14 14:07 55.71065 -4.54421 21955 ft 275 kts 205°
2026-04-14 14:07 55.69255 -4.55526 21939 ft 275 kts 205°
2026-04-14 14:08 55.67449 -4.56626 21944 ft 275 kts 205°
2026-04-14 14:08 55.65656 -4.57717 21942 ft 275 kts 204°
2026-04-14 14:08 55.63841 -4.58821 21940 ft 275 kts 205°
2026-04-14 14:08 55.62032 -4.59923 21931 ft 275 kts 204°
2026-04-14 14:09 55.60218 -4.61024 21932 ft 275 kts 204°
2026-04-14 14:09 55.58416 -4.62119 21940 ft 274 kts 204°
2026-04-14 14:09 55.56610 -4.63215 21942 ft 275 kts 204°
2026-04-14 14:09 55.54802 -4.64311 21945 ft 275 kts 204°
2026-04-14 14:10 55.53599 -4.65039 21949 ft 276 kts 204°
2026-04-14 14:10 55.51781 -4.66139 21931 ft 277 kts 204°
2026-04-14 14:10 55.49959 -4.67238 21928 ft 276 kts 204°
2026-04-14 14:10 55.48144 -4.68334 21932 ft 275 kts 204°
2026-04-14 14:11 55.46333 -4.69426 21933 ft 275 kts 204°
2026-04-14 14:11 55.44530 -4.70514 21937 ft 274 kts 204°
2026-04-14 14:11 55.42721 -4.71603 21937 ft 274 kts 204°
2026-04-14 14:11 55.40910 -4.72690 21937 ft 274 kts 204°
2026-04-14 14:12 55.39109 -4.73774 21934 ft 274 kts 204°
2026-04-14 14:12 55.37299 -4.74860 21938 ft 275 kts 204°
2026-04-14 14:12 55.35488 -4.75945 21865 ft 277 kts 204°
2026-04-14 14:12 55.33659 -4.77047 21456 ft 277 kts 204°
2026-04-14 14:13 55.31839 -4.78141 21056 ft 276 kts 204°
2026-04-14 14:13 55.30059 -4.79348 20632 ft 273 kts 208°
2026-04-14 14:13 55.28389 -4.80814 20235 ft 271 kts 212°
2026-04-14 14:13 55.26734 -4.82375 19845 ft 270 kts 212°
2026-04-14 14:14 55.25075 -4.83930 19443 ft 270 kts 211°
2026-04-14 14:14 55.23410 -4.85419 19056 ft 269 kts 209°
2026-04-14 14:14 55.21741 -4.86883 18676 ft 268 kts 209°
2026-04-14 14:14 55.20077 -4.88342 18294 ft 267 kts 209°
2026-04-14 14:15 55.18421 -4.89806 17881 ft 266 kts 209°
2026-04-14 14:15 55.16763 -4.91250 17447 ft 265 kts 208°
2026-04-14 14:15 55.15111 -4.92687 17010 ft 265 kts 208°
2026-04-14 14:15 55.13464 -4.94128 16599 ft 264 kts 208°
2026-04-14 14:16 55.11823 -4.95559 16196 ft 264 kts 208°
2026-04-14 14:16 55.10181 -4.96989 15790 ft 264 kts 208°
2026-04-14 14:16 55.08537 -4.98425 15380 ft 264 kts 208°
2026-04-14 14:17 55.05263 -5.01279 14592 ft 263 kts 208°
2026-04-14 14:17 55.03632 -5.02696 14197 ft 262 kts 208°
2026-04-14 14:17 55.02007 -5.04108 13817 ft 261 kts 208°
2026-04-14 14:17 55.00382 -5.05520 13392 ft 260 kts 207°
2026-04-14 14:18 54.98764 -5.06918 12962 ft 259 kts 207°
2026-04-14 14:18 54.97157 -5.08315 12542 ft 257 kts 207°
2026-04-14 14:18 54.95576 -5.09686 12134 ft 256 kts 207°
2026-04-14 14:18 54.93983 -5.11064 11719 ft 255 kts 207°
2026-04-14 14:19 54.92391 -5.12438 11324 ft 254 kts 207°
2026-04-14 14:19 54.90812 -5.13805 10918 ft 253 kts 206°
2026-04-14 14:19 54.89241 -5.15170 10518 ft 250 kts 208°
2026-04-14 14:19 54.87994 -5.17209 10131 ft 253 kts 237°
2026-04-14 14:20 54.87335 -5.20056 9741 ft 256 kts 248°
2026-04-14 14:20 54.86811 -5.23031 9311 ft 256 kts 249°
2026-04-14 14:20 54.86297 -5.25964 8856 ft 251 kts 248°
2026-04-14 14:20 54.85754 -5.28811 8384 ft 246 kts 246°
2026-04-14 14:21 54.85186 -5.31598 7920 ft 243 kts 245°
2026-04-14 14:21 54.84622 -5.34342 7467 ft 241 kts 246°
2026-04-14 14:21 54.84061 -5.37077 7022 ft 239 kts 245°
2026-04-14 14:21 54.83508 -5.39782 6573 ft 238 kts 245°
2026-04-14 14:22 54.82958 -5.42476 6128 ft 236 kts 245°
2026-04-14 14:22 54.82409 -5.45162 5663 ft 235 kts 245°
2026-04-14 14:22 54.81863 -5.47829 5200 ft 235 kts 245°
2026-04-14 14:22 54.81322 -5.50477 4747 ft 229 kts 245°
2026-04-14 14:23 54.80808 -5.53008 4287 ft 222 kts 244°
2026-04-14 14:23 54.80298 -5.55495 3828 ft 216 kts 244°
2026-04-14 14:23 54.79801 -5.57924 3369 ft 212 kts 244°
2026-04-14 14:23 54.79323 -5.60318 2957 ft 207 kts 243°
2026-04-14 14:24 54.78877 -5.62661 2599 ft 202 kts 243°
2026-04-14 14:24 54.78461 -5.64962 2251 ft 199 kts 243°
2026-04-14 14:24 54.77898 -5.66960 2050 ft 170 kts 216°
2026-04-14 14:24 54.77073 -5.68267 1946 ft 155 kts 214°
2026-04-14 14:25 54.76307 -5.69491 1900 ft 145 kts 213°
2026-04-14 14:25 54.75582 -5.70622 1897 ft 136 kts 212°
2026-04-14 14:25 54.74881 -5.71653 1881 ft 128 kts 207°
2026-04-14 14:25 54.74168 -5.72519 1911 ft 124 kts 204°
2026-04-14 14:26 54.73447 -5.73324 1879 ft 123 kts 203°
2026-04-14 14:26 54.72741 -5.74134 1871 ft 120 kts 203°
2026-04-14 14:26 54.72037 -5.74946 1870 ft 124 kts 204°
2026-04-14 14:26 54.71316 -5.75808 1877 ft 128 kts 206°
2026-04-14 14:27 54.70584 -5.76718 1854 ft 131 kts 206°
2026-04-14 14:27 54.69839 -5.77629 1781 ft 137 kts 206°
2026-04-14 14:27 54.69040 -5.78590 1584 ft 140 kts 206°
2026-04-14 14:27 54.68247 -5.79545 1399 ft 135 kts 206°
2026-04-14 14:28 54.67491 -5.80442 1204 ft 129 kts 206°
2026-04-14 14:28 54.66784 -5.81291 1035 ft 121 kts 206°
2026-04-14 14:28 54.66111 -5.82105 886 ft 113 kts 206°
2026-04-14 14:28 54.65480 -5.82865 742 ft 110 kts 204°
2026-04-14 14:29 54.64848 -5.83594 598 ft 109 kts 205°
2026-04-14 14:29 54.64218 -5.84369 402 ft 110 kts 208°
2026-04-14 14:29 54.63610 -5.85132 250 ft 106 kts 206°
2026-04-14 14:29 54.63014 -5.85827 175 ft 100 kts 203°
2026-04-14 14:30 54.62439 -5.86486 63 ft 100 kts 202°
2026-04-14 14:30 54.61907 -5.87171 21 ft 87 kts 204°
2026-04-14 14:30 54.61657 -5.87412 20 ft 19 kts 218°
2026-04-14 14:30 54.61578 -5.87513 19 ft 12 kts 216°
2026-04-14 14:31 54.61505 -5.87616 17 ft 16 kts 220°
2026-04-14 14:31 54.61406 -5.87732 17 ft 16 kts 212°
2026-04-14 14:31 54.61340 -5.87801 17 ft 6 kts 188°
2026-04-14 14:31 54.61304 -5.87774 18 ft 7 kts 135°
2026-04-14 14:32 54.61279 -5.87714 20 ft 3 kts 124°
2026-04-14 14:32 54.61254 -5.87643 19 ft 11 kts 103°
2026-04-14 14:32 54.61332 -5.87505 20 ft 17 kts 36°
2026-04-14 14:32 54.61410 -5.87384 20 ft 13 kts 52°
2026-04-14 14:33 54.61432 -5.87316 20 ft 2 kts 114°
2026-04-14 14:33 54.61418 -5.87279 20 ft 3 kts 124°
2026-04-14 14:33 54.61413 -5.87266 20 ft 0 kts 125°
2026-04-14 14:33 54.61410 -5.87259 20 ft 0 kts 126°